カタログに戻る

FENGYUN 1C DEB

運用中SSO
NORAD 37439·DEBRIS·🇨🇳 China

打ち上げ May 10, 1999 から Taiyuan Satellite Launch Center

Loading…

次のパス (今後24時間)

TLE

経年Source: Space-Track

元期: Sep 8, 2026, 12:12 UTC

1 37439U 99025EHH 26251.50853392  .00001926  00000-0  92158-3 0  9998
2 37439  99.0131 344.4028 0057960  54.6917  10.2283 14.19434125650871

AllMySatでFENGYUN 1C DEBをリアルタイム追跡

Download on the App Store